0 HST 1 20580U 90037B 26138.08457181 .00005136 00000-0 16211-3 0 9997 2 20580 28.4749 286.2564 0001786 152.3712 207.6979 15.30409410783956 0 ISS (ZARYA) 1 25544U 98067A 26138.19793205 .00006286 00000-0 12105-3 0 9990 2 25544 51.6325 88.5573 0007513 70.6653 289.5148 15.49256023567106 0 CXO 1 25867U 99040B 26140.28492096 .00000595 00000-0 00000-0 0 9992 2 25867 55.7802 117.3662 7885402 310.4951 359.8201 0.37805204 17218